Regional Weather Roundup
Issued by NWS Green Bay, WI

Home | Current Version | Previous Version | Text Only | Print | Product List | Glossary On
Versions: 1 2 3 4 5 6 7 8 9 10 11 12 13 14 15 16 17 18 19 20 21 22 23 24 25 26 27 28 29 30 31 32 33 34 35 36 37 38 39 40 41 42 43 44 45 46 47 48 49 50
130
ASUS43 KGRB 302100
RWRGRB

NORTH-CENTRAL AND NORTHEAST WISCONSIN REGIONAL WEATHER ROUNDUP
NATIONAL WEATHER SERVICE GREEN BAY WI
400 PM CDT MON MAY 30 2016

WIZ005-009-010>012-018-019-302200-
NORTH CENTRAL WISCONSIN

CITY           SKY/WX    TMP DP  RH WIND       PRES   REMARKS
IRONWOOD       SUNNY     75  45  33 NW10      29.95S
MANITOWISH WTR NOT AVBL
ARBOR VITAE    NOT AVBL
EAGLE RIVER    NOT AVBL
LAND O LAKES   NOT AVBL
RHINELANDER    SUNNY     78  43  28 W10G17    30.00F
PHILLIPS       PTSUNNY   76  52  41 NW6       29.99S
ANTIGO         NOT AVBL
TOMAHAWK       NOT AVBL
MERRILL        MOSUNNY   76  49  39 W5        30.00S
$$

WIZ013-073-302200-
NORTHEAST WISCONSIN

CITY           SKY/WX    TMP DP  RH WIND       PRES   REMARKS
IRON MOUNTAIN  SUNNY     77  44  30 W7        29.95F
MARINETTE      PTSUNNY   79  46  31 N8        29.96S
$$

WIZ017-030-035>037-045-302200-
CENTRAL WISCONSIN

CITY           SKY/WX    TMP DP  RH WIND       PRES   REMARKS
MEDFORD        NOT AVBL
WAUSAU         SUNNY     79  48  33 NW10      29.98F
MOSINEE        NOT AVBL
MARSHFIELD     SUNNY     80  49  33 NW7       29.99F
WISC RAPIDS    SUNNY     81  45  28 N3        30.00S
STEVENS POINT  NOT AVBL
WAUPACA        SUNNY     82  43  25 NW6       29.98F
SHAWANO        NOT AVBL
CLINTONVILLE   NOT AVBL
WAUTOMA        SUNNY    N/A N/A N/A VRB5      29.98F
$$

WIZ038-039-048-051-302200-
FOX VALLEY

CITY           SKY/WX    TMP DP  RH WIND       PRES   REMARKS
NWS GREEN BAY  MOSUNNY   80  51  36 W9        29.97F
APPLETON       MOSUNNY   79  43  27 W8        29.97F
OSHKOSH        SUNNY     80  49  33 NW6       29.98F
FOND DU LAC    SUNNY     80  53  39 NW9       29.98F
$$

WIZ022-050-052-302200-
EAST CENTRAL WISCONSIN

CITY           SKY/WX    TMP DP  RH WIND       PRES   REMARKS
EPHRAIM        NOT AVBL
STURGEON BAY   NOT AVBL
MANITOWOC      NOT AVBL
SHEBOYGAN      SUNNY     80  50  34 NW8       29.97F
$$

LMZ563-521-522-541>543-302200-
LAKESHORE

STATION/POSITION TIME  TEMP    WIND        PRES    VSBY  WAVE
                       AIR SEA DIR/SP/G                  HT/PER
                 (UTC) (F)     (DEG/KT/KT) (MB)    (MI)  (FT/S)
SHEBOYGAN LKSHOR 2000   64     170/ 12/ 12 1015.8F
KEWAUNEE LKSHORE 2000   60     150/  5/  8 1015.0F
NORTHPORT PIER   2000          130/  9/ 25 1014.6F
N MID LAKE BUOY  1950   52 50  190/  8/ 10 1014.8F         1
CHAMBERS ISLAND  2000   74     160/  4/  9 1014.6F
MENOMINEE LKSHOR 2000   79     250/  9/ 13 1013.5F
$$




USA.gov is the U.S. government's official web portal to all federal, state and local government web resources and services.